Dades meteomassalio
Diari Summary for Abril 12, 2017 Units:  English    Metric   Both
« Previous Day
Next Day »
Diari Semanal Mensual Anual Personalitzat
  Maxima: Minima: Mijana:
Temperatura: TemperatureC °F 6.1 °F 15.8 °F
Rosada: DewpointC °F 2.7 °F 4.5 °F
Humitat: Humidity % 25 % 50 %
Velocitat del vent: WindSpeedKMH mph 0.0 mph 3.6 mph
Racha vent: WindSpeedGustKMH mph - -
Vent:- - WSW
Pressio: PressurehPa in 1016.5 in -
Pluja: 0.0 in    
Historical Graphs
 
 
Tabular Data for Abril 12, 2017
Time Temperature Dew Point Pressure Wind Wind Speed Wind Gust Humidity Rainfall Rate (Hourly) solar Conditions
TemperatureC °F DewpointC °F PressurehPa in Calm     Humidity % HourlyPrecipMM in SolarRadiationWatts/m^2 W/m2 Conditions
00:03 17.4 °F 4.1 °F 1020.5 in West 22.2 mph 22.2 mph 41 % 0.0 in 0.0 W/m2 CLR
00:08 17.4 °F 4.0 °F 1020.5 in West 19.3 mph 19.3 mph 41 % 0.0 in 0.0 W/m2 CLR
00:13 17.3 °F 3.9 °F 1020.5 in West 18.5 mph 18.5 mph 41 % 0.0 in 0.0 W/m2 CLR
00:18 17.2 °F 3.8 °F 1020.5 in West 19.3 mph 19.3 mph 41 % 0.0 in 0.0 W/m2 CLR
00:23 17.1 °F 3.7 °F 1020.5 in West 20.4 mph 20.4 mph 41 % 0.0 in 0.0 W/m2 CLR
00:28 17.0 °F 4.0 °F 1020.5 in WSW 3.7 mph 3.7 mph 42 % 0.0 in 0.0 W/m2 CLR
00:33 16.6 °F 3.6 °F 1020.5 in West 5.6 mph 5.6 mph 42 % 0.0 in 0.0 W/m2 CLR
00:38 16.2 °F 3.6 °F 1020.5 in WSW 9.3 mph 9.3 mph 43 % 0.0 in 0.0 W/m2 CLR
00:43 16.1 °F 3.4 °F 1020.5 in WSW 7.4 mph 7.4 mph 43 % 0.0 in 0.0 W/m2 CLR
00:48 15.9 °F 3.7 °F 1020.5 in West 9.3 mph 9.3 mph 44 % 0.0 in 0.0 W/m2 CLR
00:53 15.8 °F 3.6 °F 1020.9 in West 7.4 mph 7.4 mph 44 % 0.0 in 0.0 W/m2 CLR
00:58 15.6 °F 3.4 °F 1020.9 in WSW 5.6 mph 5.6 mph 44 % 0.0 in 0.0 W/m2 CLR
01:03 15.4 °F 3.5 °F 1020.5 in WSW 6.4 mph 6.4 mph 45 % 0.0 in 0.0 W/m2 CLR
01:08 15.3 °F 3.8 °F 1020.9 in WSW 7.4 mph 7.4 mph 46 % 0.0 in 0.0 W/m2 CLR
01:13 15.2 °F 3.7 °F 1020.9 in WSW 3.7 mph 3.7 mph 46 % 0.0 in 0.0 W/m2 CLR
01:18 15.1 °F 3.6 °F 1020.5 in West 5.6 mph 5.6 mph 46 % 0.0 in 0.0 W/m2 CLR
01:28 15.1 °F 3.8 °F 1020.5 in West 5.6 mph 5.6 mph 47 % 0.0 in 0.0 W/m2 CLR
01:33 15.1 °F 4.1 °F 1020.5 in West 5.6 mph 5.6 mph 48 % 0.0 in 0.0 W/m2 CLR
01:38 15.1 °F 4.1 °F 1020.5 in WSW 5.6 mph 5.6 mph 48 % 0.0 in 0.0 W/m2 CLR
01:43 14.9 °F 4.0 °F 1020.5 in West 9.7 mph 9.7 mph 48 % 0.0 in 0.0 W/m2 CLR
01:48 14.8 °F 3.9 °F 1020.5 in West 11.1 mph 11.1 mph 48 % 0.0 in 0.0 W/m2 CLR
01:53 14.9 °F 3.9 °F 1020.9 in West 12.9 mph 12.9 mph 48 % 0.0 in 0.0 W/m2 CLR
01:58 14.9 °F 3.9 °F 1020.9 in West 11.1 mph 11.1 mph 48 % 0.0 in 0.0 W/m2 CLR
02:03 14.7 °F 3.8 °F 1020.9 in WSW 9.7 mph 9.7 mph 48 % 0.0 in 0.0 W/m2 CLR
02:08 14.7 °F 3.8 °F 1020.9 in West 11.1 mph 11.1 mph 48 % 0.0 in 0.0 W/m2 CLR
02:13 14.8 °F 3.9 °F 1020.9 in West 9.7 mph 9.7 mph 48 % 0.0 in 0.0 W/m2 CLR
02:18 14.8 °F 3.9 °F 1020.9 in West 5.6 mph 5.6 mph 48 % 0.0 in 0.0 W/m2 CLR
02:23 14.7 °F 4.1 °F 1020.9 in Calm     49 % 0.0 in 0.0 W/m2 CLR
02:28 13.8 °F 3.8 °F 1020.9 in Calm     51 % 0.0 in 0.0 W/m2 CLR
02:33 12.7 °F 3.7 °F 1020.9 in WSW 5.6 mph 5.6 mph 54 % 0.0 in 0.0 W/m2 CLR
02:38 12.2 °F 3.7 °F 1020.9 in WSW 3.2 mph 3.2 mph 56 % 0.0 in 0.0 W/m2 CLR
02:43 12.4 °F 3.8 °F 1020.9 in WNW 4.8 mph 4.8 mph 56 % 0.0 in 0.0 W/m2 CLR
02:48 12.8 °F 4.0 °F 1020.9 in Calm     55 % 0.0 in 0.0 W/m2 CLR
02:53 12.9 °F 4.1 °F 1020.9 in Calm     55 % 0.0 in 0.0 W/m2 CLR
02:58 12.8 °F 3.9 °F 1020.9 in Calm     55 % 0.0 in 0.0 W/m2 CLR
03:03 12.3 °F 3.8 °F 1020.9 in Calm     56 % 0.0 in 0.0 W/m2 CLR
03:08 11.9 °F 3.7 °F 1020.9 in Calm     57 % 0.0 in 0.0 W/m2 CLR
03:13 11.6 °F 3.6 °F 1020.9 in Calm     58 % 0.0 in 0.0 W/m2 CLR
03:18 11.2 °F 3.7 °F 1020.9 in Calm     60 % 0.0 in 0.0 W/m2 CLR
03:23 11.1 °F 3.9 °F 1020.9 in Calm     61 % 0.0 in 0.0 W/m2 CLR
03:28 11.1 °F 3.8 °F 1020.9 in Calm     61 % 0.0 in 0.0 W/m2 CLR
03:33 10.7 °F 3.7 °F 1020.9 in Calm     62 % 0.0 in 0.0 W/m2 CLR
03:38 10.3 °F 3.6 °F 1020.9 in Calm     63 % 0.0 in 0.0 W/m2 CLR
03:43 10.0 °F 3.5 °F 1020.9 in Calm     64 % 0.0 in 0.0 W/m2 CLR
03:48 9.8 °F 3.5 °F 1020.9 in Calm     65 % 0.0 in 0.0 W/m2 CLR
03:53 9.4 °F 3.3 °F 1020.9 in Calm     66 % 0.0 in 0.0 W/m2 CLR
03:58 9.0 °F 3.2 °F 1020.9 in Calm     67 % 0.0 in 0.0 W/m2 CLR
04:03 8.7 °F 3.2 °F 1020.9 in Calm     68 % 0.0 in 0.0 W/m2 CLR
04:08 8.6 °F 3.4 °F 1020.9 in Calm     70 % 0.0 in 0.0 W/m2 CLR
04:13 8.6 °F 3.2 °F 1020.9 in Calm     69 % 0.0 in 0.0 W/m2 CLR
04:18 8.5 °F 3.1 °F 1020.9 in Calm     69 % 0.0 in 0.0 W/m2 CLR
04:23 8.2 °F 3.1 °F 1020.9 in Calm     70 % 0.0 in 0.0 W/m2 CLR
04:28 8.1 °F 3.1 °F 1020.9 in Calm     71 % 0.0 in 0.0 W/m2 CLR
04:33 8.1 °F 3.3 °F 1020.9 in Calm     72 % 0.0 in 0.0 W/m2 CLR
04:38 8.1 °F 3.3 °F 1020.9 in Calm     72 % 0.0 in 0.0 W/m2 CLR
04:43 7.9 °F 3.2 °F 1020.9 in Calm     72 % 0.0 in 0.0 W/m2 CLR
04:48 7.8 °F 3.1 °F 1020.9 in Calm     72 % 0.0 in 0.0 W/m2 CLR
04:49 7.8 °F 3.1 °F 1020.9 in Calm     72 % 0.0 in 0.0 W/m2 CLR
04:54 7.5 °F 3.2 °F 1020.9 in Calm     74 % 0.0 in 0.0 W/m2 CLR
04:59 7.4 °F 3.1 °F 1020.9 in Calm     74 % 0.0 in 0.0 W/m2 CLR
05:04 7.5 °F 3.2 °F 1020.9 in Calm     74 % 0.0 in 0.0 W/m2 CLR
05:09 7.4 °F 3.1 °F 1020.9 in Calm     74 % 0.0 in 0.0 W/m2 CLR
05:14 7.4 °F 3.2 °F 1020.9 in Calm     75 % 0.0 in 0.0 W/m2 CLR
05:19 7.4 °F 3.2 °F 1020.9 in Calm     75 % 0.0 in 0.0 W/m2 CLR
05:24 7.4 °F 3.2 °F 1020.9 in Calm     75 % 0.0 in 0.0 W/m2 CLR
05:29 7.4 °F 3.1 °F 1020.9 in Calm     74 % 0.0 in 0.0 W/m2 CLR
05:34 7.3 °F 3.1 °F 1020.9 in Calm     75 % 0.0 in 0.0 W/m2 CLR
05:44 7.3 °F 3.2 °F 1020.9 in Calm     75 % 0.0 in 0.0 W/m2 CLR
05:49 7.4 °F 3.2 °F 1020.9 in Calm     75 % 0.0 in 0.0 W/m2 CLR
05:54 7.4 °F 3.5 °F 1020.9 in Calm   1.6 mph 76 % 0.0 in 0.0 W/m2 CLR
05:59 7.6 °F 3.4 °F 1020.9 in Calm     75 % 0.0 in 0.0 W/m2 CLR
06:04 7.8 °F 3.6 °F 1020.9 in SW 5.6 mph 5.6 mph 75 % 0.0 in 0.0 W/m2 CLR
06:09 7.8 °F 3.5 °F 1020.9 in Calm     74 % 0.0 in 0.0 W/m2 CLR
06:15 7.8 °F 3.5 °F 1020.9 in Calm     74 % 0.0 in 0.0 W/m2 CLR
06:20 7.8 °F 3.5 °F 1020.9 in Calm     74 % 0.0 in 0.0 W/m2 CLR
06:25 7.9 °F 3.6 °F 1020.9 in Calm     74 % 0.0 in 0.0 W/m2 CLR
06:30 7.7 °F 3.1 °F 1020.9 in Calm     73 % 0.0 in 0.0 W/m2 CLR
06:35 7.4 °F 3.3 °F 1020.9 in Calm     75 % 0.0 in 0.0 W/m2 CLR
06:40 7.3 °F 3.1 °F 1020.9 in Calm     75 % 0.0 in 0.0 W/m2 CLR
06:45 7.2 °F 3.3 °F 1020.9 in Calm     76 % 0.0 in 0.0 W/m2 CLR
06:50 7.1 °F 3.1 °F 1020.9 in Calm     76 % 0.0 in 0.0 W/m2 CLR
06:55 6.8 °F 3.1 °F 1021.2 in Calm     77 % 0.0 in 0.0 W/m2 CLR
07:00 6.7 °F 2.9 °F 1021.2 in Calm     77 % 0.0 in 0.0 W/m2 CLR
07:05 6.6 °F 3.0 °F 1021.2 in Calm     78 % 0.0 in 0.0 W/m2 CLR
07:10 6.4 °F 2.8 °F 1021.2 in Calm     78 % 0.0 in 0.0 W/m2 CLR
07:15 6.2 °F 2.7 °F 1021.2 in Calm     78 % 0.0 in 0.0 W/m2 OVC
07:20 6.1 °F 2.7 °F 1021.2 in Calm     79 % 0.0 in 0.0 W/m2 OVC
07:25 6.1 °F 2.9 °F 1021.2 in Calm     80 % 0.0 in 0.0 W/m2 OVC
07:30 6.1 °F 2.9 °F 1021.6 in Calm     80 % 0.0 in 7.0 W/m2 BKN
07:35 6.1 °F 2.9 °F 1021.6 in Calm     80 % 0.0 in 9.0 W/m2 BKN
07:40 6.2 °F 2.9 °F 1021.6 in Calm     80 % 0.0 in 12.0 W/m2 BKN
07:45 6.2 °F 3.0 °F 1021.6 in Calm     80 % 0.0 in 14.0 W/m2 BKN
07:50 6.2 °F 3.0 °F 1021.6 in Calm     80 % 0.0 in 18.0 W/m2 BKN
07:55 6.3 °F 3.1 °F 1021.6 in Calm     80 % 0.0 in 23.0 W/m2 BKN
08:00 6.3 °F 3.1 °F 1021.6 in Calm     80 % 0.0 in 32.0 W/m2 BKN
08:05 6.3 °F 3.1 °F 1021.6 in Calm     80 % 0.0 in 40.0 W/m2 BKN
08:10 6.5 °F 3.3 °F 1021.9 in Calm     80 % 0.0 in 53.0 W/m2 SCT
08:15 6.7 °F 3.3 °F 1021.9 in Calm     79 % 0.0 in 69.0 W/m2 FEW
08:20 6.9 °F 3.5 °F 1021.9 in Calm     79 % 0.0 in 63.0 W/m2 SCT
08:25 7.2 °F 3.6 °F 1021.9 in Calm     78 % 0.0 in 98.0 W/m2 CLR
08:30 7.6 °F 3.8 °F 1021.9 in Calm     77 % 0.0 in 116.0 W/m2 CLR
08:35 7.9 °F 3.9 °F 1021.9 in Calm     76 % 0.0 in 137.0 W/m2 CLR
08:40 8.2 °F 4.0 °F 1021.9 in Calm     75 % 0.0 in 153.0 W/m2 CLR
08:45 8.5 °F 4.1 °F 1021.9 in Calm     74 % 0.0 in 172.0 W/m2 CLR
08:50 8.8 °F 4.4 °F 1021.9 in Calm     74 % 0.0 in 192.0 W/m2 CLR
08:55 9.3 °F 4.5 °F 1021.9 in Calm     72 % 0.0 in 47.0 W/m2 CLR
09:00 9.6 °F 4.8 °F 1021.9 in Calm     72 % 0.0 in 181.0 W/m2 FEW
09:05 10.0 °F 5.0 °F 1021.9 in Calm     71 % 0.0 in 246.0 W/m2 FEW
09:10 10.6 °F 4.9 °F 1021.9 in Calm     68 % 0.0 in 265.0 W/m2 CLR
09:15 10.8 °F 5.2 °F 1021.6 in Calm     68 % 0.0 in 283.0 W/m2 CLR
09:20 11.0 °F 5.1 °F 1021.6 in Calm     67 % 0.0 in 301.0 W/m2 CLR
09:25 11.4 °F 5.5 °F 1021.6 in Calm     67 % 0.0 in 316.0 W/m2 CLR
09:30 11.8 °F 5.4 °F 1021.6 in Calm     65 % 0.0 in 334.0 W/m2 CLR
09:35 12.1 °F 5.7 °F 1021.6 in Calm     65 % 0.0 in 348.0 W/m2 CLR
09:40 12.4 °F 5.8 °F 1021.6 in Calm     64 % 0.0 in 369.0 W/m2 CLR
09:45 12.6 °F 5.7 °F 1021.6 in Calm     63 % 0.0 in 385.0 W/m2 CLR
09:50 12.8 °F 5.9 °F 1021.6 in Calm     63 % 0.0 in 399.0 W/m2 CLR
09:55 13.2 °F 6.1 °F 1021.6 in Calm     62 % 0.0 in 413.0 W/m2 CLR
10:00 13.7 °F 6.3 °F 1021.6 in Calm     61 % 0.0 in 432.0 W/m2 CLR
10:05 14.2 °F 6.8 °F 1021.6 in Calm     61 % 0.0 in 448.0 W/m2 CLR
10:15 14.8 °F 7.1 °F 1021.2 in NW 16.7 mph 16.7 mph 60 % 0.0 in 478.0 W/m2 CLR
10:30 15.0 °F 7.1 °F 1021.6 in West 16.7 mph 16.7 mph 59 % 0.0 in 524.0 W/m2 CLR
10:33 15.0 °F 6.8 °F 1021.6 in West 9.3 mph 9.3 mph 58 % 0.0 in 533.0 W/m2 CLR
10:38 15.2 °F 6.9 °F 1021.6 in WNW 18.5 mph 18.5 mph 58 % 0.0 in 547.0 W/m2 CLR
10:43 15.1 °F 6.7 °F 1021.6 in WNW 13.0 mph 13.0 mph 57 % 0.0 in 561.0 W/m2 CLR
10:48 15.2 °F 7.0 °F 1021.6 in NNW 14.8 mph 14.8 mph 58 % 0.0 in 575.0 W/m2 CLR
10:53 15.4 °F 7.2 °F 1021.2 in NW 11.1 mph 11.1 mph 58 % 0.0 in 589.0 W/m2 CLR
10:58 15.7 °F 7.2 °F 1021.2 in WNW 13.0 mph 13.0 mph 57 % 0.0 in 601.0 W/m2 CLR
11:03 15.7 °F 7.2 °F 1021.2 in WNW 5.6 mph 5.6 mph 57 % 0.0 in 615.0 W/m2 CLR
11:08 15.8 °F 7.3 °F 1021.2 in West 8.0 mph 8.0 mph 57 % 0.0 in 631.0 W/m2 CLR
11:13 16.1 °F 7.3 °F 1021.6 in WNW 12.9 mph 12.9 mph 56 % 0.0 in 642.0 W/m2 CLR
11:18 16.3 °F 7.2 °F 1021.6 in West 3.2 mph 3.2 mph 55 % 0.0 in 656.0 W/m2 CLR
11:23 16.4 °F 6.8 °F 1021.2 in WNW 11.1 mph 11.1 mph 53 % 0.0 in 668.0 W/m2 CLR
11:28 16.6 °F 6.9 °F 1021.2 in WNW 5.6 mph 5.6 mph 53 % 0.0 in 679.0 W/m2 CLR
11:33 16.7 °F 7.1 °F 1021.2 in NNW 7.4 mph 7.4 mph 53 % 0.0 in 691.0 W/m2 CLR
11:38 17.0 °F 7.6 °F 1021.2 in NNE 3.7 mph 3.7 mph 54 % 0.0 in 701.0 W/m2 CLR
11:43 17.3 °F 6.8 °F 1021.2 in WNW 11.1 mph 11.1 mph 50 % 0.0 in 712.0 W/m2 CLR
11:48 17.3 °F 7.4 °F 1021.2 in NW 16.7 mph 16.7 mph 52 % 0.0 in 724.0 W/m2 CLR
11:53 17.4 °F 6.9 °F 1021.2 in WNW 14.8 mph 14.8 mph 50 % 0.0 in 735.0 W/m2 CLR
11:58 17.5 °F 6.9 °F 1021.2 in Calm   3.2 mph 50 % 0.0 in 745.0 W/m2 CLR
12:03 17.8 °F 6.9 °F 1021.2 in NW 14.8 mph 14.8 mph 49 % 0.0 in 754.0 W/m2 CLR
12:08 18.3 °F 7.1 °F 1020.9 in North 1.9 mph   48 % 0.0 in 765.0 W/m2 CLR
12:13 18.5 °F 6.7 °F 1020.9 in WNW 16.7 mph 16.7 mph 46 % 0.0 in 773.0 W/m2 CLR
12:18 18.5 °F 6.3 °F 1021.2 in NW 7.4 mph 7.4 mph 45 % 0.0 in 782.0 W/m2 CLR
12:23 18.6 °F 6.8 °F 1020.9 in Calm     46 % 0.0 in 793.0 W/m2 CLR
12:28 18.7 °F 5.8 °F 1020.9 in NW 11.1 mph 11.1 mph 43 % 0.0 in 800.0 W/m2 CLR
12:33 18.7 °F 6.2 °F 1020.9 in West 11.1 mph 11.1 mph 44 % 0.0 in 805.0 W/m2 CLR
12:38 19.0 °F 6.8 °F 1020.9 in NNW 11.1 mph 11.1 mph 45 % 0.0 in 814.0 W/m2 CLR
12:43 19.2 °F 7.0 °F 1020.5 in NNW 9.3 mph   45 % 0.0 in 816.0 W/m2 CLR
12:48 19.3 °F 7.1 °F 1020.5 in West 12.9 mph 12.9 mph 45 % 0.0 in 828.0 W/m2 CLR
12:54 19.4 °F 5.8 °F 1020.5 in West 16.1 mph 16.1 mph 41 % 0.0 in 840.0 W/m2 CLR
12:59 19.8 °F 5.8 °F 1020.5 in North 5.6 mph   40 % 0.0 in 844.0 W/m2 CLR
13:04 20.1 °F 6.7 °F 1020.5 in NW 11.3 mph 11.3 mph 42 % 0.0 in 847.0 W/m2 CLR
13:09 19.9 °F 6.2 °F 1020.5 in Calm     41 % 0.0 in 853.0 W/m2 CLR
13:14 20.3 °F 5.1 °F 1020.2 in Calm     37 % 0.0 in 856.0 W/m2 CLR
13:19 20.5 °F 6.4 °F 1020.2 in NNW 8.0 mph 9.8 mph 40 % 0.0 in 860.0 W/m2 CLR
13:24 20.3 °F 5.9 °F 1020.2 in Calm     39 % 0.0 in 863.0 W/m2 CLR
13:29 20.3 °F 6.3 °F 1020.2 in Calm     40 % 0.0 in 865.0 W/m2 CLR
13:34 20.6 °F 7.2 °F 1020.2 in Calm     42 % 0.0 in 867.0 W/m2 CLR
13:39 21.2 °F 6.7 °F 1020.2 in South 1.9 mph   39 % 0.0 in 877.0 W/m2 CLR
13:44 21.6 °F 6.6 °F 1019.9 in Calm     38 % 0.0 in 872.0 W/m2 CLR
13:49 21.5 °F 6.9 °F 1019.9 in Calm     39 % 0.0 in 874.0 W/m2 CLR
13:54 21.8 °F 6.8 °F 1019.9 in NW 9.3 mph 9.3 mph 38 % 0.0 in 872.0 W/m2 CLR
13:59 21.6 °F 6.6 °F 1019.5 in Calm     38 % 0.0 in 874.0 W/m2 CLR
14:04 21.4 °F 6.2 °F 1019.5 in NE 9.7 mph 9.7 mph 37 % 0.0 in 875.0 W/m2 CLR
14:09 21.6 °F 5.4 °F 1019.5 in NE 3.7 mph   35 % 0.0 in 874.0 W/m2 CLR
14:14 21.7 °F 5.6 °F 1019.5 in North 5.6 mph 5.6 mph 35 % 0.0 in 877.0 W/m2 CLR
14:24 21.8 °F 6.4 °F 1019.2 in WNW 9.3 mph 9.3 mph 37 % 0.0 in 874.0 W/m2 CLR
14:29 21.8 °F 6.5 °F 1019.2 in ENE 9.3 mph 9.3 mph 37 % 0.0 in 867.0 W/m2 CLR
14:34 22.0 °F 6.2 °F 1019.2 in ENE 1.6 mph   36 % 0.0 in 867.0 W/m2 CLR
14:39 22.3 °F 6.1 °F 1019.2 in Calm     35 % 0.0 in 860.0 W/m2 CLR
14:44 22.6 °F 5.9 °F 1018.8 in NE 5.6 mph 5.6 mph 34 % 0.0 in 860.0 W/m2 CLR
14:49 22.5 °F 5.4 °F 1018.8 in Calm     33 % 0.0 in 854.0 W/m2 CLR
14:54 22.6 °F 5.9 °F 1018.8 in NNW 3.7 mph 3.7 mph 34 % 0.0 in 853.0 W/m2 CLR
14:59 22.7 °F 5.6 °F 1018.8 in North 13.0 mph 13.0 mph 33 % 0.0 in 847.0 W/m2 CLR
15:04 22.7 °F 5.6 °F 1018.8 in North 9.3 mph 9.3 mph 33 % 0.0 in 844.0 W/m2 CLR
15:09 22.8 °F 5.3 °F 1018.8 in NNW 11.1 mph 11.1 mph 32 % 0.0 in 838.0 W/m2 CLR
15:14 22.7 °F 5.6 °F 1018.5 in WNW 7.4 mph 7.4 mph 33 % 0.0 in 833.0 W/m2 CLR
15:19 22.8 °F 5.7 °F 1018.5 in NNW 11.1 mph 11.1 mph 33 % 0.0 in 828.0 W/m2 CLR
15:24 23.0 °F 4.9 °F 1018.5 in North 5.6 mph 5.6 mph 31 % 0.0 in 823.0 W/m2 CLR
15:29 23.1 °F 5.1 °F 1018.5 in NNE 5.6 mph 5.6 mph 31 % 0.0 in 814.0 W/m2 CLR
15:34 23.3 °F 6.2 °F 1018.5 in NNW 9.7 mph 9.7 mph 33 % 0.0 in 807.0 W/m2 CLR
15:39 23.6 °F 5.9 °F 1018.2 in NNW 6.4 mph 6.4 mph 32 % 0.0 in 800.0 W/m2 CLR
15:44 23.7 °F 6.4 °F 1018.2 in NNW 6.4 mph 6.4 mph 33 % 0.0 in 793.0 W/m2 CLR
15:49 23.8 °F 6.1 °F 1018.2 in Calm     32 % 0.0 in 784.0 W/m2 CLR
15:54 23.8 °F 6.1 °F 1018.2 in NE 3.2 mph 3.2 mph 32 % 0.0 in 775.0 W/m2 CLR
15:59 23.9 °F 5.7 °F 1017.8 in NNW 9.3 mph 9.3 mph 31 % 0.0 in 765.0 W/m2 CLR
16:04 23.7 °F 5.1 °F 1017.8 in NNE 9.3 mph 9.3 mph 30 % 0.0 in 758.0 W/m2 CLR
16:09 23.5 °F 4.9 °F 1017.8 in Calm     30 % 0.0 in 749.0 W/m2 CLR
16:14 23.7 °F 5.6 °F 1017.8 in SSW 5.6 mph 5.6 mph 31 % 0.0 in 740.0 W/m2 CLR
16:19 24.2 °F 5.9 °F 1017.5 in NNW 9.3 mph 9.3 mph 31 % 0.0 in 731.0 W/m2 CLR
16:24 24.2 °F 5.5 °F 1017.5 in NNW 3.7 mph   30 % 0.0 in 719.0 W/m2 CLR
16:29 24.2 °F 5.6 °F 1017.5 in North 9.3 mph 9.3 mph 30 % 0.0 in 705.0 W/m2 CLR
16:34 24.1 °F 4.9 °F 1017.5 in NNW 7.4 mph 7.4 mph 29 % 0.0 in 693.0 W/m2 CLR
16:39 24.2 °F 5.1 °F 1017.2 in North 7.4 mph 7.4 mph 29 % 0.0 in 680.0 W/m2 CLR
16:44 24.1 °F 5.4 °F 1017.2 in NNW 6.4 mph 6.4 mph 30 % 0.0 in 670.0 W/m2 CLR
16:54 24.5 °F 5.3 °F 1017.2 in North 9.3 mph 9.3 mph 29 % 0.0 in 643.0 W/m2 CLR
16:59 24.6 °F 4.9 °F 1017.2 in WNW 5.6 mph 5.6 mph 28 % 0.0 in 631.0 W/m2 CLR
17:04 24.5 °F 4.3 °F 1017.2 in NNW 12.9 mph 12.9 mph 27 % 0.0 in 617.0 W/m2 CLR
17:09 24.2 °F 5.1 °F 1017.2 in WNW 11.1 mph 11.1 mph 29 % 0.0 in 606.0 W/m2 CLR
17:14 24.1 °F 4.4 °F 1017.2 in NNW 7.4 mph 7.4 mph 28 % 0.0 in 589.0 W/m2 CLR
17:19 24.3 °F 5.1 °F 1017.2 in NNW 11.1 mph 11.1 mph 29 % 0.0 in 575.0 W/m2 CLR
17:24 24.2 °F 4.6 °F 1017.2 in NNE 11.1 mph 11.1 mph 28 % 0.0 in 563.0 W/m2 CLR
17:29 24.1 °F 4.4 °F 1017.2 in North 13.0 mph 13.0 mph 28 % 0.0 in 548.0 W/m2 CLR
17:34 24.1 °F 3.9 °F 1017.2 in NNE 11.1 mph 11.1 mph 27 % 0.0 in 534.0 W/m2 CLR
17:39 24.1 °F 3.4 °F 1017.2 in NNE 8.0 mph 8.0 mph 26 % 0.0 in 519.0 W/m2 CLR
17:44 24.1 °F 3.4 °F 1016.8 in North 5.6 mph 5.6 mph 26 % 0.0 in 501.0 W/m2 CLR
17:49 24.2 °F 3.4 °F 1016.8 in Calm     26 % 0.0 in 485.0 W/m2 CLR
17:54 24.4 °F 3.6 °F 1016.8 in Calm   2.3 mph 26 % 0.0 in 471.0 W/m2 CLR
17:59 24.6 °F 3.8 °F 1017.2 in NNE 3.7 mph   26 % 0.0 in 457.0 W/m2 CLR
18:04 24.6 °F 3.3 °F 1017.2 in NE 5.6 mph 5.6 mph 25 % 0.0 in 441.0 W/m2 CLR
18:09 24.6 °F 3.8 °F 1016.8 in Calm   0.2 mph 26 % 0.0 in 424.0 W/m2 CLR
18:14 24.6 °F 3.2 °F 1016.8 in NW 7.4 mph 7.4 mph 25 % 0.0 in 408.0 W/m2 CLR
18:19 24.4 °F 3.6 °F 1016.8 in NNW 5.6 mph 5.6 mph 26 % 0.0 in 392.0 W/m2 CLR
18:25 24.6 °F 3.8 °F 1016.8 in North 7.4 mph 7.4 mph 26 % 0.0 in 373.0 W/m2 CLR
18:30 24.6 °F 3.8 °F 1016.8 in NW 6.4 mph 6.4 mph 26 % 0.0 in 359.0 W/m2 CLR
18:35 24.4 °F 4.2 °F 1016.8 in Calm     27 % 0.0 in 343.0 W/m2 CLR
18:40 24.3 °F 4.1 °F 1016.8 in Calm     27 % 0.0 in 325.0 W/m2 CLR
18:45 24.6 °F 3.8 °F 1016.8 in Calm     26 % 0.0 in 306.0 W/m2 CLR
18:50 24.6 °F 3.8 °F 1016.5 in Calm     26 % 0.0 in 292.0 W/m2 CLR
18:55 24.7 °F 3.9 °F 1016.8 in Calm     26 % 0.0 in 274.0 W/m2 CLR
19:00 24.6 °F 3.8 °F 1016.8 in ENE 1.6 mph   26 % 0.0 in 251.0 W/m2 CLR
19:05 24.4 °F 3.7 °F 1016.5 in ENE 5.6 mph 5.6 mph 26 % 0.0 in 236.0 W/m2 CLR
19:10 24.3 °F 3.6 °F 1016.5 in ENE 3.7 mph 3.7 mph 26 % 0.0 in 216.0 W/m2 CLR
19:15 24.1 °F 3.3 °F 1016.5 in Calm     26 % 0.0 in 197.0 W/m2 CLR
19:20 24.0 °F 3.8 °F 1016.5 in ENE 3.7 mph 3.7 mph 27 % 0.0 in 178.0 W/m2 CLR
19:25 23.9 °F 3.2 °F 1016.5 in ENE 1.9 mph 1.9 mph 26 % 0.0 in 155.0 W/m2 CLR
19:30 23.7 °F 3.1 °F 1016.5 in Calm     26 % 0.0 in 137.0 W/m2 CLR
19:35 23.7 °F 3.6 °F 1016.5 in Calm     27 % 0.0 in 120.0 W/m2 CLR
19:40 23.7 °F 3.0 °F 1016.5 in Calm     26 % 0.0 in 104.0 W/m2 CLR
19:45 23.6 °F 3.4 °F 1016.5 in Calm     27 % 0.0 in 84.0 W/m2 CLR
19:50 23.4 °F 3.4 °F 1016.5 in Calm     27 % 0.0 in 67.0 W/m2 FEW
19:55 23.3 °F 3.3 °F 1016.5 in Calm     27 % 0.0 in 49.0 W/m2 SCT
20:00 23.3 °F 3.2 °F 1016.5 in Calm     27 % 0.0 in 42.0 W/m2 BKN
20:05 23.1 °F 3.1 °F 1016.5 in Calm     27 % 0.0 in 32.0 W/m2 BKN
20:10 23.0 °F 3.0 °F 1016.5 in Calm     27 % 0.0 in 19.0 W/m2 BKN
20:15 22.8 °F 2.8 °F 1016.5 in Calm     27 % 0.0 in 14.0 W/m2 BKN
20:20 22.5 °F 3.1 °F 1016.5 in Calm     28 % 0.0 in 12.0 W/m2 BKN
20:25 22.2 °F 2.8 °F 1016.5 in Calm     28 % 0.0 in 9.0 W/m2 BKN
20:30 22.1 °F 3.2 °F 1016.5 in Calm     29 % 0.0 in 7.0 W/m2 BKN
20:35 21.8 °F 3.0 °F 1016.5 in Calm     29 % 0.0 in 5.0 W/m2 OVC
20:40 21.7 °F 2.8 °F 1016.5 in Calm     29 % 0.0 in 0.0 W/m2 OVC
20:45 21.4 °F 3.6 °F 1016.5 in Calm     31 % 0.0 in 0.0 W/m2 OVC
20:50 21.1 °F 3.7 °F 1016.5 in Calm     32 % 0.0 in 0.0 W/m2 CLR
20:55 20.6 °F 4.2 °F 1016.5 in Calm     34 % 0.0 in 0.0 W/m2 CLR
21:00 19.9 °F 4.8 °F 1016.5 in Calm     37 % 0.0 in 0.0 W/m2 CLR
21:05 19.3 °F 4.6 °F 1016.5 in Calm     38 % 0.0 in 0.0 W/m2 CLR
21:10 18.7 °F 4.5 °F 1016.8 in Calm     39 % 0.0 in 0.0 W/m2 CLR
21:15 18.2 °F 4.7 °F 1016.8 in Calm     41 % 0.0 in 0.0 W/m2 CLR
21:20 17.6 °F 4.8 °F 1016.8 in Calm     43 % 0.0 in 0.0 W/m2 CLR
21:30 16.4 °F 4.8 °F 1017.2 in Calm     46 % 0.0 in 0.0 W/m2 CLR
21:35 16.0 °F 5.0 °F 1017.2 in Calm     48 % 0.0 in 0.0 W/m2 CLR
21:40 15.5 °F 4.8 °F 1017.2 in Calm     49 % 0.0 in 0.0 W/m2 CLR
21:45 15.2 °F 4.6 °F 1017.2 in Calm     49 % 0.0 in 0.0 W/m2 CLR
21:50 15.1 °F 4.7 °F 1017.2 in Calm     50 % 0.0 in 0.0 W/m2 CLR
21:55 14.9 °F 4.6 °F 1017.5 in Calm     50 % 0.0 in 0.0 W/m2 CLR
22:00 14.8 °F 4.8 °F 1017.5 in Calm     51 % 0.0 in 0.0 W/m2 CLR
22:05 14.7 °F 4.9 °F 1017.5 in Calm     52 % 0.0 in 0.0 W/m2 CLR
22:10 14.4 °F 4.7 °F 1017.5 in Calm     52 % 0.0 in 0.0 W/m2 CLR
22:15 14.1 °F 4.7 °F 1017.5 in Calm     53 % 0.0 in 0.0 W/m2 CLR
22:20 13.9 °F 4.7 °F 1017.8 in Calm     54 % 0.0 in 0.0 W/m2 CLR
22:25 13.7 °F 4.5 °F 1017.8 in Calm     54 % 0.0 in 0.0 W/m2 CLR
22:30 13.5 °F 4.9 °F 1017.8 in Calm     56 % 0.0 in 0.0 W/m2 CLR
22:35 13.3 °F 4.7 °F 1017.8 in Calm     56 % 0.0 in 0.0 W/m2 CLR
22:40 13.1 °F 4.8 °F 1017.8 in Calm     57 % 0.0 in 0.0 W/m2 CLR
22:45 12.9 °F 4.8 °F 1017.8 in Calm     58 % 0.0 in 0.0 W/m2 CLR
22:50 12.7 °F 4.7 °F 1017.8 in Calm     58 % 0.0 in 0.0 W/m2 CLR
22:55 12.6 °F 4.6 °F 1017.8 in Calm     58 % 0.0 in 0.0 W/m2 CLR
23:00 12.5 °F 4.4 °F 1017.8 in Calm     58 % 0.0 in 0.0 W/m2 CLR
23:05 12.3 °F 4.5 °F 1017.8 in Calm     59 % 0.0 in 0.0 W/m2 CLR
23:10 12.1 °F 4.3 °F 1018.2 in Calm     59 % 0.0 in 0.0 W/m2 CLR
23:15 12.0 °F 4.4 °F 1018.2 in Calm     60 % 0.0 in 0.0 W/m2 CLR
23:20 11.9 °F 4.4 °F 1018.2 in Calm     60 % 0.0 in 0.0 W/m2 CLR
23:25 11.8 °F 4.3 °F 1018.2 in Calm     60 % 0.0 in 0.0 W/m2 CLR
23:30 11.6 °F 4.3 °F 1018.2 in Calm     61 % 0.0 in 0.0 W/m2 CLR
23:35 11.4 °F 4.2 °F 1018.2 in Calm     61 % 0.0 in 0.0 W/m2 CLR
23:40 11.3 °F 4.1 °F 1018.2 in Calm     61 % 0.0 in 0.0 W/m2 CLR
23:45 11.3 °F 4.3 °F 1018.2 in Calm     62 % 0.0 in 0.0 W/m2 CLR
23:50 11.1 °F 4.1 °F 1018.2 in Calm     62 % 0.0 in 0.0 W/m2 CLR
23:55 11.0 °F 4.0 °F 1018.5 in Calm     62 % 0.0 in 0.0 W/m2 CLR
Lo Temps de Massalio
Compliments of Weather Underground - 1.25 mb